Location: Ernez
(36.4595°N, 29.8755°E)
Time: 09:09:52
(UTC+00:00)

Nadezhda 4 Rocket - Pass Details

Date: 13 November 2025
Orbit: 949 x 991 km, 82.9° (Epoch: 05 December)

Event Time Altitude Azimuth Distance (km) Brightness Sun altitude
Rises 16:40:43 0° 356° (N) 3,700 7.0 -21.7°
Reaches altitude 10° 16:43:18 10° 0° (N) 2,743 6.3 -22.2°
Maximum altitude 16:49:32 64° 81° (E) 1,073 3.9 -23.5°
Drops below altitude 10° 16:55:40 10° 163° (SSE) 2,699 6.2 -24.7°
Sets 16:58:10 0° 166° (SSE) 3,636 6.9 -25.2°
